Regional Weather Roundup
Issued by NWS

Home | Current Version | Previous Version | Text Only | Print | Product List | Glossary Off
Versions: 1 2 3 4 5 6 7 8 9 10 11 12 13 14 15 16 17 18 19 20 21 22 23 24 25 26 27 28 29 30 31 32 33 34 35 36 37 38 39 40 41 42 43 44 45 46 47 48 49 50

849
ASUS43 KDTX 230801
RWRMI
MICHIGAN HOURLY REGIONAL WEATHER ROUNDUP
NATIONAL WEATHER SERVICE DETROIT/PONTIAC MI
300 AM EST MON JAN 23 2017

NOTE: "FAIR" INDICATES FEW OR NO CLOUDS BELOW 12,000 FEET WITH NO
SIGNIFICANT WEATHER AND/OR OBSTRUCTION TO VISIBILITY.

MIZ047>049-052>055-059>063-066>070-074>076-081>083-230900-
SOUTHEAST LOWER MICHIGAN

CITY           SKY/WX    TMP DP  RH WIND       PRES   REMARKS
ADRIAN         CLOUDY    45  45 100 NE9       29.60S FOG
ALMA           CLOUDY    38  38 100 N5        29.66R FOG     WCI  35
ANN ARBOR      FOG       45  45 100 NE7       29.61R VSB 1
BAD AXE        FOG       38  38 100 E3        29.68R VSB 1/2
CARO           CLOUDY    39  39 100 E3        29.66R FOG
DETROIT CITY   FOG       41  41 100 NE9       29.63S VSB 3/4
DETROIT        FOG       43  43 100 NE10      29.62S VSB 3/4
FLINT          CLOUDY    40  39  97 NE6       29.65R FOG
GROSSE ILE     FOG       41  41  99 NE10      29.60F VSB 3/4
HILLSDALE      FOG       43  43 100 N7        29.59R VSB 1/2
HOWELL         FOG       39  39  97 N5        29.63R VSB 1

CITY           SKY/WX    TMP DP  RH WIND       PRES   REMARKS
JACKSON        FOG       41  40  96 N5        29.62R VSB 1/2
LAMBERTVILLE   FOG       43  42  95 E8        29.60R VSB 1
LANSING        CLOUDY    40  37  89 N5        29.65R FOG
LAPEER         FOG       39  39 100 CALM      29.65R VSB 1/4
MASON          FOG       39  39 100 N3        29.63R VSB 3/4
MONROE         FOG       42  42 100 N6        29.59F VSB 1
MT. CLEMENS    CLOUDY    40  40 100 NE6       29.62S FOG
PONTIAC        FOG       41  39  93 NE8       29.61R VSB 1/4
PORT HOPE        N/A     37  36  96 E9        29.67R WCI  30
PORT HURON     SNOW      37  37 100 NE5       29.65S VSB 1/4 WCI  34
TRI CITIES     FOG       37  37 100 N6        29.67R VSB 1/4 WCI  32
MIDLAND        CLOUDY    39  38  97 CALM      29.66S FOG
TROY           FOG       42  40  95 NE9       29.64F VSB 3/4
SAGINAW HB     FOG       36  34  93 NE5       29.67R VSB 1/2 WCI  32
$$
MIZ043>046-050>051-056>058-064>065-071>073-077>080-230900-
SOUTHWEST LOWER MICHIGAN

CITY           SKY/WX    TMP DP  RH WIND       PRES   REMARKS
BATTLE CREEK   FOG       41  41 100 N6        29.63R VSB 1
BENTON HARBOR  CLOUDY    40  38  93 N6        29.66R FOG
BIG RAPIDS     CLOUDY    36  36  99 CALM      29.67S FOG
COLDWATER      FOG       42  42 100 N6        29.61R VSB 3/4
FREMONT        CLOUDY    38  38 100 N7        29.67S FOG     WCI  32
HOLLAND        CLOUDY    41  39  93 N5        29.67R
GRAND RAPIDS   FOG       40  39  97 N9        29.64F VSB 3/4 WCI  34
IONIA          FOG       38  38  99 N5        29.64S VSB 1/2 WCI  35
KALAMAZOO      FOG       42  40  92 N6        29.63R VSB 3/4
LUDINGTON      FOG       37  37 100 N3        29.70R VSB<1/4
MARSHALL       CLOUDY    41  40  98 N5        29.61S FOG
MOUNT PLEASANT CLOUDY    37  37  99 NW5       29.66S FOG     WCI  34
MUSKEGON       CLOUDY    39  37  92 N6        29.68S WCI  35
SOUTH HAVEN    CLOUDY    38  38  99 N7        29.67R FOG     WCI  33
$$
MIZ016>042-230900-
NORTHERN LOWER MICHIGAN

CITY           SKY/WX    TMP DP  RH WIND       PRES   REMARKS
ALPENA         FOG       37  36  96 E6        29.72R VSB 1/2 WCI  32
BEAVER ISLAND  FOG       34  34 100 CALM      29.72S VSB 1
BELLAIRE       FOG       34  33  99 CALM      29.71S VSB 1
CADILLAC       CLOUDY    37  36  96 CALM      29.67R FOG
CHARLEVOIX     FOG       36  36 100 CALM      29.74R VSB 1/2
FRANKFORT      FOG      N/A N/A N/A CALM      29.71R VSB 1/4
GAYLORD        FOG       38  35  89 CALM      29.69R VSB 1/4
GRAYLING       FOG       36  35  94 N3        29.69S VSB 1/2
HARBOR SPRINGS FOG       35  35 100 CALM      29.71S VSB 1
HOUGHTON LAKE  FOG       36  36 100 CALM      29.68S VSB 1/4
MANISTEE       FOG       37  37 100 CALM      29.70S VSB 1/4
OSCODA         FOG       37  37  97 N3        29.69S VSB 1/2
PELLSTON       FOG       34  32  92 CALM      29.72S VSB 1/4
ROGERS CITY    FOG       36  35  96 E5        29.72S VSB 1/4 WCI  32
TRAVERSE CITY  FOG       37  36  96 CALM      29.70R VSB 1/4
$$
MIZ007>008-015-230900-
EASTERN UPPER MICHIGAN

CITY           SKY/WX    TMP DP  RH WIND       PRES   REMARKS
KINROSS        MIX PCPN  35  35 100 E12       29.73S FOG     WCI  27
MACKINAC ISLAN FOG       35  35 100 E9        29.72S VSB 1/4 WCI  27
NEWBERRY       FOG       34  33  97 E3        29.72R VSB 1/2
S. S. MARIE    CLOUDY    37  36  96 SE7       29.74R FOG     WCI  32
MUNISING         N/A     34  34 100 CALM      29.72R
$$
MIZ004>006-011>014-085-230900-
CENTRAL UPPER MICHIGAN

CITY           SKY/WX    TMP DP  RH WIND       PRES   REMARKS
MANISTIQUE     FOG       34  33  96 CALM      29.72S VSB 1/2
ESCANABA       FOG       35  35 100 CALM      29.73R VSB 1/2
SAWYER-GWINN   FOG       33  33  99 CALM      29.71S VSB 1/2
$$
MIZ001>003-009>011-084-230900-
WESTERN UPPER MICHIGAN

CITY           SKY/WX    TMP DP  RH WIND       PRES   REMARKS
IRON MOUNTAIN  CLOUDY    35  32  88 NW3       29.71S
HOUGHTON       FOG       34  32  92 W7        29.70R VSB 3/4 WCI  28
COPPER HARBOR    N/A     36  36 100 CALM      29.71R
IRONWOOD       CLOUDY    33  33 100 CALM      29.74R
$$

ABBREVIATIONS USED IN REMARKS
   TC - TEMPERATURE IN CELSIUS
  WCI - WIND CHILL INDEX
   HX - HEAT INDEX
  VSB - VISIBILITY





USA.gov is the U.S. government's official web portal to all federal, state and local government web resources and services.